Regional Weather Roundup
Issued by NWS Little Rock, AR

Home | Current Version | Previous Version | Text Only | Print | Product List | Glossary On
Versions: 1 2 3 4 5 6 7 8 9 10 11 12 13 14 15 16 17 18 19 20 21 22 23 24 25 26 27 28 29 30 31 32 33 34 35 36 37 38 39 40 41 42 43 44 45 46 47 48 49 50
000
ASUS44 KLZK 171005
RWRLZK

WEATHER ROUNDUP FOR ARKANSAS
NATIONAL WEATHER SERVICE LITTLE ROCK AR
400 AM CST TUE JAN 17 2017

NOTE: "FAIR" INDICATES FEW OR NO CLOUDS BELOW 12,000 FEET WITH NO
SIGNIFICANT WEATHER AND/OR OBSTRUCTIONS TO VISIBILITY.

ARZ001-003-010-029-171100-
NORTHWEST ARKANSAS

CITY           SKY/WX    TMP DP  RH WIND       PRES   REMARKS
FAYETTEVILLE   CLOUDY    36  35  96 SW6       30.06S
FORT SMITH     CLEAR     37  33  85 SW3       30.11S
HARRISON       CLOUDY    39  35  86 W8        30.03F
BENTONVILLE    CLOUDY   N/A N/A N/A W8        30.05R
ROGERS         CLOUDY    39  35  86 SW8       30.05R
SILOAM SPGS    CLOUDY    37  34  87 W8        30.06R
HIGHFILL       CLOUDY    39  35  86 SW6       30.05R
$$

ARZ004-005-016-171100-
NORTH CENTRAL ARKANSAS

CITY           SKY/WX    TMP DP  RH WIND       PRES   REMARKS
BATESVILLE     MOCLDY    48  45  87 W6        30.04S
FLIPPIN        PTCLDY    43  32  65 W8        30.02R
MTN HOME       PTCLDY    38  36  92 CALM      30.03R
$$

ARZ040-041-171100-
WEST CENTRAL ARKANSAS

CITY           SKY/WX    TMP DP  RH WIND       PRES   REMARKS
MENA           MOCLDY    45  45 100 CALM      30.09F
MOUNT IDA      MOCLDY    47  42  83 NW3       30.05S
$$

ARZ009-017-025-026-028-171100-
NORTHEAST ARKANSAS

CITY           SKY/WX    TMP DP  RH WIND       PRES   REMARKS
CORNING        FAIR      46  45  93 W7        30.00R
JONESBORO      MOCLDY    51  46  83 W10       30.02R
NEWPORT        CLOUDY    49  45  86 NW8       30.04R
WALNUT RIDGE   CLEAR     46  39  76 W9        30.01R
BLYTHEVILLE    CLOUDY    60  56  86 SW9       29.98R
$$

ARZ022-023-033-042-044-171100-
CENTRAL ARKANSAS

CITY           SKY/WX    TMP DP  RH WIND       PRES   REMARKS
LITTLE ROCK    CLOUDY    50  46  86 W7        30.09R
N LITTLE ROCK    N/A     49  45  86 W3        30.09R
JACKSONVILLE   CLOUDY    50  46  87 W10       30.07R
SEARCY         CLOUDY    50  44  80 W7        30.06S
HOT SPRINGS    CLOUDY    50  47  89 NW6       30.07S
RUSSELLVILLE   CLEAR     44  38  79 W7        30.07F
CLINTON        MOCLDY    41  41 100 CALM      30.04F
$$

ARZ036-171100-
EAST ARKANSAS

CITY           SKY/WX    TMP DP  RH WIND       PRES   REMARKS
WEST MEMPHIS   LGT RAIN  56  32  40 W6        30.02R
$$

ARZ050-053-066-070-073-171100-
SOUTHWEST ARKANSAS

CITY           SKY/WX    TMP DP  RH WIND       PRES   REMARKS
ARKADELPHIA    CLOUDY    51  49  92 W5        30.10S
CAMDEN         CLOUDY    54  48  82 NW3       30.09S
TEXARKANA      LGT RAIN  50  32  50 N3        30.09F
EL DORADO      CLOUDY    54  52  93 NW3       30.10R
DE QUEEN       MOCLDY    47  46  97 SW8       30.11F
$$

ARZ056-057-069-171100-
SOUTHEAST ARKANSAS

CITY           SKY/WX    TMP DP  RH WIND       PRES   REMARKS
PINE BLUFF     CLOUDY    55  54  96 W6        30.08R
STUTTGART      CLOUDY    54  46  76 NW8       30.06R
MONTICELLO     CLOUDY    57  55  93 W3        30.06S

$$





USA.gov is the U.S. government's official web portal to all federal, state and local government web resources and services.